[[{"header":{"parameterUnit":"m.s-1","parameterCategory":1,"la1":30.2991,"la2":30.254,"lo1":-89.0895,"lo2":-89.0444,"dx":0.0017,"dy":0.0017,"nx":28,"ny":28,"refTime":"2023-01-30T15:00:00:Z","depth":0,"parameterNumber":2,"parameterNumberName":"U-component_of_WINDS"},"data":[0,0,0,0,0,0,0,0,0,0,0,0,0,0,0,0,0,0,0,0,0,0,0,0,0,0,0,0,0,0,0,0,0,0,0,0,0,0,0,0,0,0,0,0,0,0,0,0,0,0,0,0,0,0,0,0,0,0,-0.4143,-0.4143,0,-0.4155,-0.4155,-0.4155,-0.4135,-0.4134,-0.4133,-0.4133,-0.4149,-0.415,-0.4151,0,0,0,0,0,0,0,0,0,0,0,0,0,-0.4106,-0.4106,-0.4143,-0.4143,-0.4143,-0.4155,-0.4155,-0.4155,-0.4135,-0.4134,-0.4133,-0.4132,-0.4149,-0.415,-0.4151,0,0,0,0,0,0,0,0,0,0,0,0,0,-0.412,-0.4107,-0.4143,-0.4134,-0.4133,-0.4155,-0.4155,-0.4155,-0.4135,-0.4134,-0.4133,-0.4132,-0.4148,-0.415,-0.4151,-0.4182,0,0,-0.4156,-0.4157,0,0,0,0,0,0,0,0,-0.4119,-0.4122,-0.4135,-0.4135,-0.4134,-0.4142,-0.4148,-0.4164,-0.4135,-0.4135,-0.4133,-0.4131,-0.4148,-0.4149,-0.4154,-0.4183,-0.4184,-0.4156,-0.4157,-0.4158,-0.4159,0,0,0,0,0,0,0,-0.4118,-0.4121,-0.4148,-0.4135,-0.4135,-0.4131,-0.4132,-0.4151,-0.4147,-0.4135,-0.4133,-0.4135,-0.4147,-0.4153,-0.4154,-0.4184,-0.4156,-0.4158,-0.4159,-0.4159,-0.4241,-0.4242,0,0,0,0,0,0,-0.4118,-0.412,-0.4147,-0.4148,-0.4124,-0.4133,-0.4134,-0.4141,-0.4147,-0.4147,-0.4136,-0.4134,-0.415,-0.4152,-0.4155,-0.4192,-0.4158,-0.416,-0.4161,-0.424,-0.4241,-0.4242,0,0,0,0,0,0,-0.4117,-0.4121,-0.4147,-0.4134,-0.4137,-0.4134,-0.4142,-0.4141,-0.4147,-0.4147,-0.4147,-0.4141,-0.415,-0.4153,-0.4176,-0.4192,-0.416,-0.4162,-0.4238,-0.424,-0.4242,-0.4267,0,0,0,0,0,0,-0.4116,-0.412,-0.4131,-0.4134,-0.4137,-0.4166,-0.4143,-0.4142,-0.4149,-0.4147,-0.4153,-0.4153,-0.4149,-0.4173,-0.4177,-0.4194,-0.4163,-0.4237,-0.4239,-0.4241,-0.4264,-0.4269,-0.4273,0,0,0,0,0,-0.4115,-0.4138,-0.4132,-0.4135,-0.4151,-0.4167,-0.4169,-0.4163,-0.415,-0.4162,-0.4163,-0.4153,-0.419,-0.4176,-0.418,-0.4198,-0.4236,-0.4238,-0.4241,-0.4262,-0.4268,-0.4273,0,0,0,0,0,0,-0.4139,-0.4139,-0.4131,-0.4156,-0.4162,-0.4164,-0.4178,-0.4169,-0.418,-0.4177,-0.417,-0.4172,-0.4197,-0.42,-0.4184,-0.4229,-0.4211,-0.4215,-0.4226,-0.4231,-0.4236,-0.4234,-0.4164,0,0,0,0,0,-0.4147,-0.4159,-0.4158,-0.418,-0.4183,-0.418,-0.4187,-0.4182,-0.4188,-0.4191,-0.4193,-0.42,-0.4214,-0.4223,-0.4235,-0.4265,-0.4266,-0.4279,-0.4284,-0.4287,-0.429,-0.4307,-0.4313,-0.4251,-0.4251,-0.4251,0,0,-0.4163,-0.4165,-0.4173,-0.4185,-0.4189,-0.4203,-0.4182,-0.4198,-0.4208,-0.4193,-0.4215,-0.4217,-0.4225,-0.4252,-0.4264,-0.4255,-0.4308,-0.4291,-0.4293,-0.4295,-0.4311,-0.4316,-0.4322,-0.4253,-0.4252,-0.4252,0,0,-0.4201,-0.4203,-0.4222,-0.4226,-0.4231,-0.4229,-0.4234,-0.4237,-0.4237,-0.4259,-0.4248,-0.4262,-0.4285,-0.4291,-0.4297,-0.4338,-0.4329,-0.4342,-0.4365,-0.4382,-0.4387,-0.4391,-0.4406,-0.4412,-0.4346,-0.4346,-0.4346,0,-0.4222,-0.4241,-0.4233,-0.4249,-0.4255,-0.4241,-0.4261,-0.4265,-0.4275,-0.428,-0.427,-0.4299,-0.4303,-0.4332,-0.4342,-0.4347,-0.4353,-0.4341,-0.4386,-0.4391,-0.4395,-0.4409,-0.4415,-0.4347,-0.4347,-0.4347,-0.4347,0,-0.4266,-0.428,-0.4294,-0.4303,-0.4311,-0.4329,-0.4325,-0.4334,-0.4328,-0.4328,-0.4351,-0.4355,-0.4369,-0.4375,-0.437,-0.4403,-0.4398,-0.4387,-0.4369,-0.4402,-0.4416,-0.4421,-0.4349,-0.4349,-0.4348,-0.4348,0,0,-0.4318,-0.4322,-0.4328,-0.4332,-0.4337,-0.4348,-0.4366,-0.4378,-0.4387,-0.4394,-0.441,-0.443,-0.442,-0.4428,-0.4423,-0.4438,-0.4471,-0.4426,-0.4426,-0.4434,-0.4508,-0.4516,-0.4523,-0.4465,-0.4466,-0.4467,-0.4508,0,-0.4356,-0.4385,-0.4379,-0.4408,-0.4421,-0.4409,-0.4425,-0.443,-0.4431,-0.4443,-0.4444,-0.4458,-0.4444,-0.4448,-0.4462,-0.4464,-0.4486,-0.4461,-0.4481,-0.4482,-0.4479,-0.453,-0.4538,-0.4576,-0.4513,-0.4514,-0.4515,0,-0.4404,-0.4412,-0.4442,-0.4446,-0.4451,-0.4465,-0.4476,-0.4487,-0.4495,-0.4494,-0.4502,-0.4495,-0.4515,-0.4497,-0.4524,-0.4507,-0.4515,-0.4518,-0.4519,-0.4521,-0.45,-0.4533,-0.4588,-0.4594,-0.4523,-0.4522,-0.4521,0,-0.4439,-0.4458,-0.4479,-0.4483,-0.4487,-0.4498,-0.4501,-0.4506,-0.4514,-0.4524,-0.4529,-0.4542,-0.4549,-0.456,-0.4558,-0.4544,-0.4586,-0.4567,-0.4587,-0.4587,-0.4596,-0.4596,-0.4654,-0.4601,-0.4601,-0.4601,-0.4601,0,-0.4482,-0.4501,-0.4495,-0.4508,-0.4529,-0.4523,-0.4545,-0.4546,-0.4552,-0.4565,-0.4556,-0.457,-0.4565,-0.4579,-0.4578,-0.4601,-0.4605,-0.4606,-0.4605,-0.4606,-0.4606,-0.4612,-0.4609,-0.4603,-0.4602,-0.4602,-0.4602,0,-0.4526,-0.4522,-0.4544,-0.4546,-0.4547,-0.4563,-0.4566,-0.4579,-0.4578,-0.4596,-0.46,-0.46,-0.4616,-0.4615,-0.4633,-0.4632,-0.4661,-0.4657,-0.4658,-0.4657,-0.4677,-0.4676,-0.4741,-0.4749,-0.4691,-0.4692,-0.4692,0,-0.4553,-0.4567,-0.4571,-0.4579,-0.4582,-0.4596,-0.4603,-0.4598,-0.4606,-0.4616,-0.4628,-0.4642,-0.4654,-0.468,-0.4683,-0.4697,-0.4694,-0.4716,-0.4696,-0.4697,-0.4695,-0.4694,-0.4696,-0.472,-0.472,-0.4721,-0.4721,0,-0.4603,-0.46,-0.4611,-0.4621,-0.463,-0.4638,-0.4646,-0.4653,-0.4649,-0.4659,-0.4675,-0.4684,-0.4702,-0.4717,-0.4731,-0.4735,-0.4728,-0.4727,-0.4733,-0.4734,-0.4734,-0.4735,-0.4669,-0.4726,-0.4725,-0.4725,-0.4725,-0.4725,-0.4639,-0.4652,-0.4656,-0.4669,-0.4673,-0.4681,-0.4693,-0.4693,-0.4706,-0.4719,-0.4716,-0.4733,-0.4741,-0.4759,-0.4764,-0.4779,-0.4772,-0.4779,-0.4781,-0.4783,-0.4786,-0.4732,-0.4782,-0.4782,-0.4782,-0.4781,-0.4781,0,-0.4689,-0.4691,-0.4702,-0.4712,-0.4723,-0.4713,-0.4721,-0.4731,-0.4746,-0.4753,-0.4764,-0.4783,-0.4798,-0.4802,-0.4816,-0.4828,-0.4825,-0.4832,-0.4831,-0.4832,-0.4792,-0.4785,-0.4834,-0.4834,-0.4834,-0.4834,-0.4834,-0.4834,-0.4716,-0.4736,-0.4734,-0.4757,-0.476,-0.4776,-0.4781,-0.4788,-0.4794,-0.4814,-0.4826,-0.4828,-0.4834,-0.4849,-0.4863,-0.4864,-0.487,-0.4879,-0.4878,-0.484,-0.4835,-0.483,-0.4824,-0.488,-0.488,-0.4918,-0.4918,-0.4919]},{"header":{"parameterUnit":"m.s-1","parameterCategory":1,"la1":30.2991,"la2":30.254,"lo1":-89.0895,"lo2":-89.0444,"dx":0.0017,"dy":0.0017,"nx":28,"ny":28,"refTime":"2023-01-30T15:00:00:Z","depth":0,"parameterNumber":3,"parameterNumberName":"V-component_of_WINDS"},"data":[0,0,0,0,0,0,0,0,0,0,0,0,0,0,0,0,0,0,0,0,0,0,0,0,0,0,0,0,0,0,0,0,0,0,0,0,0,0,0,0,0,0,0,0,0,0,0,0,0,0,0,0,0,0,0,0,0,0,0.6745,0.6745,0,0.6782,0.6782,0.6783,0.6779,0.6779,0.6778,0.6777,0.6816,0.6818,0.6819,0,0,0,0,0,0,0,0,0,0,0,0,0,0.667,0.6671,0.6745,0.6745,0.6746,0.6782,0.6783,0.6783,0.6779,0.6779,0.6778,0.6777,0.6816,0.6818,0.682,0,0,0,0,0,0,0,0,0,0,0,0,0,0.6704,0.6671,0.6745,0.6748,0.6749,0.6782,0.6783,0.6783,0.6779,0.6779,0.6778,0.6777,0.6815,0.6817,0.682,0.6852,0,0,0.6827,0.6828,0,0,0,0,0,0,0,0,0.6702,0.6707,0.6747,0.6748,0.6749,0.6775,0.677,0.6806,0.678,0.6768,0.6777,0.6776,0.6803,0.6807,0.6816,0.6854,0.6855,0.6827,0.6829,0.683,0.683,0,0,0,0,0,0,0,0.67,0.6705,0.6759,0.6748,0.6749,0.6748,0.6752,0.6777,0.679,0.6769,0.6769,0.6773,0.6804,0.6813,0.6816,0.6856,0.6827,0.6829,0.6831,0.6832,0.6921,0.6922,0,0,0,0,0,0,0.6697,0.6703,0.6758,0.6761,0.6723,0.675,0.6754,0.6767,0.679,0.6792,0.6774,0.6773,0.681,0.6814,0.6818,0.6856,0.683,0.6832,0.6833,0.692,0.6921,0.6922,0,0,0,0,0,0,0.6695,0.6701,0.6757,0.6732,0.6739,0.6752,0.6767,0.6769,0.6778,0.6794,0.6796,0.6781,0.6809,0.6814,0.6843,0.6858,0.6833,0.6835,0.6919,0.6921,0.6922,0.6934,0,0,0,0,0,0,0.6693,0.6701,0.6714,0.6732,0.674,0.6782,0.6768,0.677,0.6782,0.6781,0.6801,0.6804,0.6809,0.684,0.6846,0.686,0.6837,0.6918,0.692,0.6921,0.6932,0.6935,0.6938,0,0,0,0,0,0.669,0.6716,0.6714,0.6721,0.6756,0.6783,0.6787,0.6793,0.6784,0.6796,0.6806,0.6803,0.6855,0.6843,0.6849,0.6865,0.6917,0.6919,0.6921,0.6931,0.6935,0.6938,0,0,0,0,0,0,0.6699,0.6718,0.6717,0.6749,0.6764,0.6782,0.6798,0.6797,0.6815,0.6813,0.6819,0.6824,0.6852,0.6862,0.6847,0.6897,0.6885,0.6888,0.689,0.6894,0.6897,0.6894,0.6839,0,0,0,0,0,0.6705,0.6724,0.674,0.6767,0.6775,0.6785,0.6797,0.6799,0.6815,0.6822,0.6833,0.6849,0.6869,0.6882,0.6901,0.6933,0.6937,0.6947,0.695,0.6953,0.6956,0.6973,0.6977,0.693,0.693,0.6929,0,0,0.6717,0.673,0.6742,0.6769,0.6781,0.6801,0.6791,0.6813,0.6828,0.6825,0.6853,0.6862,0.6879,0.691,0.6924,0.6919,0.697,0.6955,0.6957,0.6959,0.6976,0.698,0.6984,0.6931,0.6931,0.693,0,0,0.6749,0.6761,0.6784,0.6796,0.6814,0.6821,0.6826,0.6844,0.6849,0.6877,0.6875,0.6893,0.6927,0.694,0.695,0.6986,0.6984,0.6992,0.7008,0.7024,0.7028,0.7031,0.7043,0.7048,0.6995,0.6995,0.6995,0,0.6762,0.6792,0.6797,0.6819,0.683,0.6828,0.6852,0.6863,0.6887,0.6895,0.6888,0.693,0.6942,0.6975,0.6983,0.6992,0.6998,0.699,0.7027,0.703,0.7034,0.7045,0.705,0.6995,0.6995,0.6995,0.6995,0,0.6807,0.6828,0.6844,0.6866,0.688,0.6903,0.691,0.6923,0.6924,0.6931,0.6959,0.6973,0.6994,0.7002,0.7004,0.7035,0.7031,0.7026,0.7014,0.7039,0.705,0.7055,0.6997,0.6996,0.6996,0.6996,0,0,0.6847,0.687,0.6876,0.6885,0.6904,0.692,0.6942,0.6963,0.6974,0.699,0.7008,0.7036,0.7031,0.7043,0.7046,0.706,0.7087,0.7053,0.7054,0.7059,0.7121,0.7125,0.7131,0.7085,0.7086,0.7087,0.712,0,0.6881,0.692,0.6924,0.6959,0.6978,0.6975,0.6994,0.7008,0.7015,0.7032,0.7039,0.7059,0.705,0.7058,0.7072,0.708,0.7099,0.7078,0.7102,0.7103,0.7098,0.7136,0.7141,0.7172,0.7124,0.7125,0.7125,0,0.6926,0.6942,0.6979,0.6994,0.7002,0.7019,0.7038,0.7054,0.7069,0.7073,0.7085,0.7086,0.7108,0.7095,0.7126,0.7111,0.7121,0.7127,0.7128,0.7131,0.7116,0.714,0.7182,0.7186,0.7132,0.7132,0.7131,0,0.6951,0.6982,0.7008,0.7016,0.7035,0.7046,0.7055,0.7069,0.708,0.7096,0.7104,0.7122,0.7133,0.7147,0.7152,0.7142,0.7182,0.717,0.7186,0.7186,0.7195,0.7194,0.7239,0.7201,0.7201,0.7201,0.7201,0,0.6989,0.7011,0.7019,0.7035,0.706,0.7064,0.7088,0.7096,0.7108,0.7125,0.7124,0.714,0.7146,0.7163,0.7167,0.7191,0.7196,0.7199,0.72,0.72,0.7199,0.7207,0.7205,0.7202,0.7202,0.7201,0.7201,0,0.7022,0.7028,0.7056,0.707,0.7074,0.7092,0.7104,0.7119,0.7125,0.7147,0.7152,0.7161,0.7181,0.7187,0.7211,0.7214,0.7243,0.7242,0.7237,0.7238,0.7254,0.7252,0.7304,0.7311,0.7269,0.7269,0.727,0,0.7046,0.7063,0.7079,0.709,0.7098,0.7116,0.7128,0.7132,0.7144,0.7161,0.7174,0.7193,0.7209,0.724,0.7249,0.7267,0.7267,0.7284,0.727,0.7268,0.7267,0.7266,0.7268,0.7287,0.7287,0.7288,0.7288,0,0.7087,0.7089,0.7106,0.7123,0.7136,0.715,0.7164,0.7173,0.7179,0.7192,0.7212,0.7224,0.7248,0.7267,0.7285,0.7293,0.7292,0.7292,0.7297,0.7297,0.7294,0.7295,0.7245,0.7291,0.7291,0.7291,0.729,0.729,0.7116,0.7131,0.7144,0.7162,0.7172,0.7185,0.7199,0.7206,0.7223,0.7242,0.7244,0.7265,0.7278,0.7302,0.7311,0.7328,0.7323,0.733,0.7332,0.7333,0.7334,0.729,0.7331,0.7331,0.7331,0.7331,0.7331,0,0.7158,0.7166,0.7182,0.7201,0.7215,0.7211,0.7225,0.7237,0.7256,0.7268,0.7283,0.7306,0.7324,0.7333,0.7351,0.7363,0.7362,0.7367,0.7367,0.7369,0.7338,0.7332,0.7367,0.7367,0.7367,0.7367,0.7367,0.7367,0.7181,0.7205,0.7209,0.7238,0.7246,0.7266,0.7274,0.7286,0.7295,0.732,0.7335,0.7341,0.7352,0.737,0.7387,0.7389,0.7396,0.7401,0.7403,0.7375,0.7371,0.7367,0.7362,0.7403,0.7403,0.7433,0.7433,0.7433]}]]